| time (UTC) | temp F | wind direction | speed MPH | gust MPH | rain 1hr in | rain 24hr in | rain mn in | humidity % | barometer mb |
| 20260508130007 | 63 | 135 | 0.0 | 3.0 | 0.00 | 0.00 | 0.00 | 28 | 1025.4 |
| 20260508124503 | 62 | 94 | 0.0 | 7.0 | 0.00 | 0.00 | 0.00 | 30 | 1025.4 |
| 20260508123000 | 63 | 136 | 0.0 | 3.0 | 0.00 | 0.00 | 0.00 | 28 | 1025.4 |
| 20260508121600 | 62 | 208 | 0.0 | 5.0 | 0.00 | 0.00 | 0.00 | 29 | 1025.5 |
| 20260508120105 | 62 | 134 | 0.0 | 5.0 | 0.00 | 0.00 | 0.00 | 31 | 1025.5 |
| 20260508114559 | 62 | 150 | 0.0 | 5.0 | 0.00 | 0.00 | 0.00 | 31 | 1025.5 |
| 20260508113100 | 62 | 139 | 0.0 | 6.0 | 0.00 | 0.00 | 0.00 | 30 | 1025.4 |
| 20260508111556 | 62 | 150 | 0.0 | 4.0 | 0.00 | 0.00 | 0.00 | 30 | 1025.4 |
| 20260508110113 | 61 | 177 | 0.0 | 3.0 | 0.00 | 0.00 | 0.00 | 31 | 1025.5 |
| 20260508104600 | 60 | 200 | 0.0 | 5.0 | 0.00 | 0.00 | 0.00 | 34 | 1025.5 |
| 20260508103057 | 60 | 239 | 0.0 | 3.0 | 0.00 | 0.00 | 0.00 | 31 | 1025.5 |
| 20260508101556 | 61 | 139 | 0.0 | 4.0 | 0.00 | 0.00 | 0.00 | 32 | 1025.5 |
| 20260508100052 | 59 | 201 | 0.0 | 5.0 | 0.00 | 0.00 | 0.00 | 32 | 1025.6 |
| 20260508094555 | 59 | 176 | 0.0 | 3.0 | 0.00 | 0.00 | 0.00 | 34 | 1025.6 |
| 20260508093058 | 60 | 195 | 0.0 | 2.0 | 0.00 | 0.00 | 0.00 | 33 | 1025.6 |
| 20260508091549 | 59 | 140 | 0.0 | 3.0 | 0.00 | 0.00 | 0.00 | 32 | 1025.7 |
| 20260508090106 | 58 | 183 | 0.0 | 5.0 | 0.00 | 0.00 | 0.00 | 34 | 1025.7 |
| 20260508084550 | 58 | 142 | 0.0 | 1.0 | 0.00 | 0.00 | 0.00 | 32 | 1025.8 |
| 20260508083049 | 57 | 153 | 0.0 | 2.0 | 0.00 | 0.00 | 0.00 | 32 | 1025.7 |
| 20260508081548 | 56 | 167 | 0.0 | 1.0 | 0.00 | 0.00 | 0.00 | 32 | 1025.7 |
| 20260508080045 | 56 | 136 | 0.0 | 2.0 | 0.00 | 0.00 | 0.00 | 34 | 1025.6 |
| 20260508074545 | 55 | 129 | 0.0 | 5.0 | 0.00 | 0.00 | 0.00 | 33 | 1025.6 |
| 20260508073043 | 54 | 119 | 0.0 | 1.0 | 0.00 | 0.00 | 0.00 | 37 | 1025.5 |
| 20260508071543 | 54 | 114 | 0.0 | 3.0 | 0.00 | 0.00 | 0.00 | 42 | 1025.4 |
| 20260508070042 | 53 | 138 | 0.0 | 1.0 | 0.00 | 0.00 | 0.00 | 44 | 1025.3 |
| 20260508064540 | 53 | 197 | 0.0 | 2.0 | 0.00 | 0.00 | 0.00 | 47 | 1025.2 |
| 20260508063039 | 52 | 132 | 0.0 | 2.0 | 0.00 | 0.00 | 0.00 | 49 | 1025.2 |
| 20260508061537 | 51 | 123 | 0.0 | 4.0 | 0.00 | 0.00 | 0.00 | 47 | 1025.0 |
| 20260508060042 | 50 | 126 | 0.0 | 0.0 | 0.00 | 0.00 | 0.00 | 54 | 1024.9 |
| 20260508054542 | 49 | 139 | 0.0 | 0.0 | 0.00 | 0.00 | 0.00 | 56 | 1024.9 |
| 20260508053037 | 47 | 149 | 0.0 | 0.0 | 0.00 | 0.00 | 0.00 | 66 | 1024.7 |
| 20260508051532 | 44 | 102 | 0.0 | 0.0 | 0.00 | 0.00 | 0.00 | 73 | 1024.6 |
| 20260508050033 | 43 | 50 | 0.0 | 0.0 | 0.00 | 0.00 | 0.00 | 74 | 1024.4 |
| 20260508044531 | 43 | 92 | 0.0 | 0.0 | 0.00 | 0.00 | 0.00 | 74 | 1024.3 |
| 20260508043029 | 43 | 111 | 0.0 | 0.0 | 0.00 | 0.00 | 0.00 | 74 | 1024.2 |
| 20260508041533 | 42 | 111 | 0.0 | 0.0 | 0.00 | 0.00 | 0.00 | 75 | 1024.1 |
| 20260508040029 | 41 | 113 | 0.0 | 0.0 | 0.00 | 0.00 | 0.00 | 80 | 1024.0 |
| 20260508034528 | 37 | 98 | 0.0 | 0.0 | 0.00 | 0.00 | 0.00 | 84 | 1023.8 |
| 20260508033035 | 37 | 111 | 0.0 | 0.0 | 0.00 | 0.00 | 0.00 | 84 | 1023.6 |
| 20260508031525 | 36 | 101 | 0.0 | 0.0 | 0.00 | 0.00 | 0.00 | 84 | 1023.5 |
| 20260508030021 | 36 | 101 | 0.0 | 0.0 | 0.00 | 0.00 | 0.00 | 83 | 1023.4 |
| 20260508024520 | 36 | 103 | 0.0 | 0.0 | 0.00 | 0.00 | 0.00 | 82 | 1023.2 |
| 20260508023033 | 37 | 102 | 0.0 | 0.0 | 0.00 | 0.00 | 0.00 | 81 | 1023.1 |
| 20260508021515 | 37 | 104 | 0.0 | 0.0 | 0.00 | 0.00 | 0.00 | 80 | 1023.0 |
| 20260508020013 | 37 | 102 | 0.0 | 0.0 | 0.00 | 0.00 | 0.00 | 78 | 1022.9 |
| 20260508014514 | 38 | 102 | 0.0 | 0.0 | 0.00 | 0.00 | 0.00 | 76 | 1022.8 |
| 20260508013010 | 38 | 91 | 0.0 | 0.0 | 0.00 | 0.00 | 0.00 | 74 | 1022.6 |
| 20260508011508 | 39 | 115 | 0.0 | 0.0 | 0.00 | 0.00 | 0.00 | 73 | 1022.5 |
| 20260508010012 | 39 | 109 | 0.0 | 0.0 | 0.00 | 0.00 | 0.00 | 72 | 1022.4 |
| 20260508004516 | 39 | 125 | 0.0 | 0.0 | 0.00 | 0.00 | 0.00 | 72 | 1022.3 |
| 20260508003006 | 39 | 117 | 0.0 | 0.0 | 0.00 | 0.00 | 0.00 | 72 | 1022.2 |
| 20260508001505 | 39 | 113 | 0.0 | 0.0 | 0.00 | 0.00 | 0.00 | 72 | 1022.0 |
| 20260508000001 | 38 | 201 | 0.0 | 0.0 | 0.00 | 0.00 | 0.00 | 72 | 1021.8 |
| 20260507234600 | 37 | 205 | 0.0 | 0.0 | 0.00 | 0.00 | 0.00 | 71 | 1021.7 |
| 20260507233059 | 38 | 95 | 0.0 | 0.0 | 0.00 | 0.00 | 0.00 | 69 | 1021.6 |
| 20260507231559 | 38 | 95 | 0.0 | 0.0 | 0.00 | 0.00 | 0.00 | 63 | 1021.6 |
| 20260507224600 | 40 | 93 | 0.0 | 0.0 | 0.00 | 0.00 | 0.00 | 59 | 1021.3 |
| 20260507223050 | 41 | 94 | 0.0 | 0.0 | 0.00 | 0.00 | 0.00 | 58 | 1021.2 |
| 20260507221545 | 41 | 57 | 0.0 | 0.0 | 0.00 | 0.00 | 0.00 | 56 | 1021.0 |
| 20260507214542 | 42 | 67 | 0.0 | 0.0 | 0.00 | 0.00 | 0.00 | 52 | 1021.0 |
| 20260507213046 | 43 | 68 | 0.0 | 0.0 | 0.00 | 0.00 | 0.00 | 50 | 1020.7 |
| 20260507211536 | 43 | 101 | 0.0 | 0.0 | 0.00 | 0.00 | 0.00 | 47 | 1020.4 |
| 20260507204530 | 45 | 93 | 0.0 | 0.0 | 0.00 | 0.00 | 0.00 | 43 | 1020.0 |
| 20260507203027 | 45 | 76 | 0.0 | 0.0 | 0.00 | 0.00 | 0.00 | 42 | 1019.8 |
| 20260507201529 | 46 | 51 | 0.0 | 0.0 | 0.00 | 0.00 | 0.00 | 38 | 1019.7 |
| 20260507194542 | 48 | 141 | 0.0 | 1.0 | 0.00 | 0.00 | 0.00 | 36 | 1018.9 |
| 20260507193103 | 49 | 139 | 0.0 | 1.0 | 0.00 | 0.00 | 0.00 | 35 | 1018.7 |
| 20260507191536 | 50 | 134 | 0.0 | 0.0 | 0.00 | 0.00 | 0.00 | 39 | 1018.4 |
| 20260507184505 | 53 | 156 | 0.0 | 1.0 | 0.00 | 0.00 | 0.00 | 34 | 1017.8 |
| 20260507183114 | 55 | 131 | 0.0 | 1.0 | 0.00 | 0.00 | 0.00 | 31 | 1017.8 |
| 20260507183003 | 55 | 131 | 0.0 | 1.0 | 0.00 | 0.00 | 0.00 | 32 | 1017.8 |
| 20260507181558 | 55 | 149 | 0.0 | 2.0 | 0.00 | 0.00 | 0.00 | 31 | 1017.5 |
| 20260507174554 | 58 | 162 | 0.0 | 2.0 | 0.00 | 0.00 | 0.00 | 28 | 1017.1 |
| 20260507173118 | 57 | 144 | 0.0 | 1.0 | 0.00 | 0.00 | 0.00 | 32 | 1017.0 |
| 20260507171549 | 57 | 143 | 0.0 | 2.0 | 0.00 | 0.00 | 0.00 | 32 | 1016.9 |
| 20260507164543 | 57 | 66 | 0.0 | 0.0 | 0.00 | 0.00 | 0.00 | 40 | 1016.5 |
| 20260507163039 | 59 | 60 | 0.0 | 0.0 | 0.00 | 0.00 | 0.00 | 39 | 1016.4 |
| 20260507161536 | 60 | 357 | 0.0 | 0.0 | 0.00 | 0.00 | 0.00 | 36 | 1016.4 |
| 20260507154535 | 58 | 29 | 0.0 | 0.0 | 0.00 | 0.00 | 0.00 | 39 | 1016.2 |
| 20260507153033 | 59 | 332 | 0.0 | 0.0 | 0.00 | 0.00 | 0.00 | 38 | 1016.1 |
| 20260507151527 | 58 | 15 | 0.0 | 0.0 | 0.00 | 0.00 | 0.00 | 38 | 1016.1 |
| 20260507144528 | 61 | 359 | 0.0 | 0.0 | 0.00 | 0.00 | 0.00 | 34 | 1016.0 |
| 20260507143014 | 59 | 338 | 0.0 | 1.0 | 0.00 | 0.00 | 0.00 | 34 | 1015.9 |
| 20260507141510 | 58 | 351 | 0.0 | 0.0 | 0.00 | 0.00 | 0.00 | 32 | 1015.9 |
| 20260507134504 | 58 | 352 | 0.0 | 0.0 | 0.00 | 0.00 | 0.00 | 35 | 1015.8 |
| 20260507133003 | 58 | 334 | 0.0 | 0.0 | 0.00 | 0.00 | 0.00 | 33 | 1015.8 |
| 20260507131600 | 58 | 57 | 0.0 | 0.0 | 0.00 | 0.00 | 0.00 | 35 | 1015.9 |